Volkel, Netherlands

2:04 AM CEST on July 23, 2017 (GMT +0200)
Volkel Air Base

Weather History for EHVK - April, 2013

Change the Weather History Date:

Wednesday, April 24, 2013

  Actual Average Record
Temperature  
Mean Temperature 56 °F -  
Max Temperature 71 °F 62 °F 78 °F (2011)
Min Temperature 41 °F 45 °F 33 °F (1997)
Degree Days  
Heating Degree Days 9    
Growing Degree Days 6 (Base 50)    
Moisture  
Dew Point 45 °F    
Average Humidity 85    
Maximum Humidity 100    
Minimum Humidity 43    
Precipitation  
Precipitation 0.00 in - - ()
Sea Level Pressure  
Sea Level Pressure 30.24 in    
Wind  
Wind Speed 4 mph ()    
Max Wind Speed 16 mph    
Max Gust Speed 23 mph    
Visibility 5.0 miles    
Events      
Averages and records for this station are not official NWS values.
T = Trace of Precipitation, MM = Missing Value Source: Averaged Metar Reports

Daily Weather History Graph

Daily Weather History Graph

Search for Another Location

Airport or City:

Trip Planner

Search our weather history database for the weather conditions in past years. The results will help you decide how hot, cold, wet, or windy it might be!

Date:

Astronomy

Apr. 24, 2013 Rise Set
Actual Time 6:22 AM CEST 8:49 PM CEST
Civil Twilight 5:45 AM CEST 9:26 PM CEST
Nautical Twilight 4:58 AM CEST 10:14 PM CEST
Astronomical Twilight 4:02 AM CEST 11:10 PM CEST
Moon 7:28 PM CEST (4/24) 5:26 AM CEST (4/24)
Length of Visible Light 15h 41m
Length of Day
14h 27m
Waxing Gibbous, 97% of the Moon is Illuminated
Apr 24
Waxing Gibbous
Apr 25
Full
May 2
Last Quarter
May 10
New
May 18
First Quarter

Hourly Weather History & Observations

Time (CEST) Temp. Windchill Dew Point Humidity Pressure Visibility Wind Dir Wind Speed Gust Speed Precip Events Conditions
12:25 AM 46.4 °F - 44.6 °F 93% 30.24 in 5.6 mi West 2.3 mph - N/A   Mist
12:29 AM 44.6 °F - 44.6 °F 100% 30.24 in 4.3 mi West 2.3 mph - N/A   Mist
12:33 AM 44.6 °F - 42.8 °F 93% 30.24 in 5.0 mi West 2.3 mph - N/A   Mist
12:43 AM 44.6 °F - 42.8 °F 93% 30.24 in 5.6 mi WSW 1.2 mph - N/A   Mist
12:55 AM 44.6 °F - 42.8 °F 93% 30.24 in 4.3 mi West 1.2 mph - N/A   Mist
12:56 AM 44.6 °F - 42.8 °F 93% 30.24 in 5.6 mi West 1.2 mph - N/A   Mist
1:03 AM 42.8 °F - 42.8 °F 100% 30.24 in 4.3 mi West 1.2 mph - N/A   Mist
1:19 AM 42.8 °F - 42.8 °F 100% 30.24 in 5.0 mi WNW 1.2 mph - N/A   Mist
1:25 AM 42.8 °F - 42.8 °F 100% 30.24 in - NE 1.2 mph - N/A   Mist
1:28 AM 42.8 °F - 42.8 °F 100% 30.24 in 3.1 mi ENE 1.2 mph - N/A   Mist
1:38 AM 42.8 °F - 42.8 °F 100% 30.24 in - ENE 2.3 mph - N/A   Mist
1:40 AM 42.8 °F - 42.8 °F 100% 30.24 in - ENE 1.2 mph - N/A   Mist
1:46 AM 42.8 °F - 42.8 °F 100% 30.24 in 3.1 mi ENE 1.2 mph - N/A   Mist
1:55 AM 42.8 °F - 41.0 °F 93% 30.24 in 2.8 mi ENE 2.3 mph - N/A   Mist
1:57 AM 42.8 °F 41.1 °F 42.8 °F 100% 30.24 in 3.7 mi ENE 3.5 mph - N/A   Mist
2:04 AM 42.8 °F 41.1 °F 42.8 °F 100% 30.24 in 6.2 mi ENE 3.5 mph - N/A   Unknown
2:09 AM 41.0 °F - 41.0 °F 100% 30.24 in 4.3 mi ENE 2.3 mph - N/A   Mist
2:15 AM 41.0 °F - 41.0 °F 100% 30.24 in 5.0 mi ENE 2.3 mph - N/A   Mist
2:18 AM 42.8 °F - 41.0 °F 93% 30.24 in 4.3 mi East 1.2 mph - N/A   Mist
2:25 AM 42.8 °F - 42.8 °F 100% 30.24 in - East 1.2 mph - N/A   Mist
2:30 AM 41.0 °F - 41.0 °F 100% 30.24 in 3.1 mi SSE 2.3 mph - N/A   Mist
2:35 AM 41.0 °F - 39.2 °F 93% 30.24 in - South 2.3 mph - N/A   Mist
2:38 AM 41.0 °F 39.0 °F 41.0 °F 100% 30.24 in - SSW 3.5 mph - N/A   Mist
2:43 AM 41.0 °F - 41.0 °F 100% 30.24 in - SSW 2.3 mph - N/A   Mist
2:55 AM 42.8 °F - 42.8 °F 100% 30.24 in - SSW 2.3 mph - N/A   Mist
2:58 AM 42.8 °F - 42.8 °F 100% 30.24 in 2.5 mi SSW 2.3 mph - N/A   Mist
3:00 AM 42.8 °F - 42.8 °F 100% 30.24 in - SSW 2.3 mph - N/A   Mist
3:05 AM 42.8 °F - 42.8 °F 100% 30.24 in - South 2.3 mph - N/A   Mist
3:21 AM 41.0 °F - 41.0 °F 100% 30.24 in - SSW 2.3 mph - N/A   Mist
3:25 AM 41.0 °F - 41.0 °F 100% 30.24 in - South 2.3 mph - N/A   Mist
3:26 AM 42.8 °F - 42.8 °F 100% 30.24 in 3.1 mi South 2.3 mph - N/A   Mist
3:39 AM 41.0 °F 39.0 °F 41.0 °F 100% 30.24 in 3.1 mi SSW 3.5 mph - N/A   Mist
3:55 AM 44.6 °F 43.1 °F 44.6 °F 100% 30.24 in - SW 3.5 mph - N/A   Mist
3:56 AM 44.6 °F 43.1 °F 44.6 °F 100% 30.24 in 3.1 mi SW 3.5 mph - N/A   Mist
4:01 AM 44.6 °F 43.1 °F 44.6 °F 100% 30.24 in - SW 3.5 mph - N/A   Mist
4:07 AM 44.6 °F 43.1 °F 44.6 °F 100% 30.24 in 3.1 mi SW 3.5 mph - N/A   Mist
4:18 AM 42.8 °F 41.1 °F 42.8 °F 100% 30.24 in - SSW 3.5 mph - N/A   Mist
4:25 AM 42.8 °F 41.1 °F 42.8 °F 100% 30.24 in 3.1 mi South 3.5 mph - N/A   Mist
4:36 AM 44.6 °F 43.1 °F 44.6 °F 100% 30.24 in - SSW 3.5 mph - N/A   Mist
4:45 AM 44.6 °F - 44.6 °F 100% 30.24 in - SSW 2.3 mph - N/A   Mist
4:49 AM 44.6 °F - 44.6 °F 100% 30.24 in - SSW 2.3 mph - N/A   Mist
4:55 AM 44.6 °F 43.1 °F 44.6 °F 100% 30.24 in - SSW 3.5 mph - N/A   Mist
4:57 AM 44.6 °F - 44.6 °F 100% 30.24 in - SSW 2.3 mph - N/A   Mist
5:14 AM 46.4 °F - 44.6 °F 93% 30.24 in - SW 2.3 mph - N/A   Mist
5:25 AM 44.6 °F - 42.8 °F 93% 30.24 in - South 2.3 mph - N/A   Mist
5:41 AM 44.6 °F 43.1 °F 42.8 °F 93% 30.24 in - South 3.5 mph - N/A   Mist
5:55 AM 44.6 °F 43.1 °F 42.8 °F 93% 30.24 in - SW 3.5 mph - N/A   Mist
6:03 AM 44.6 °F 43.1 °F 44.6 °F 100% 30.24 in - SW 3.5 mph - N/A   Mist
6:08 AM 44.6 °F 43.1 °F 44.6 °F 100% 30.24 in - SW 3.5 mph - N/A   Mist
6:11 AM 42.8 °F 41.1 °F 42.8 °F 100% 30.24 in - SSW 3.5 mph - N/A   Mist
6:25 AM 42.8 °F 41.1 °F 42.8 °F 100% 30.24 in - South 3.5 mph - N/A   Mist
6:55 AM 44.6 °F 42.2 °F 44.6 °F 100% 30.24 in - South 4.6 mph - N/A   Mist
7:12 AM 44.6 °F 43.1 °F 44.6 °F 100% 30.24 in 3.1 mi South 3.5 mph - N/A   Mist
7:17 AM 46.4 °F 44.3 °F 46.4 °F 100% 30.24 in - South 4.6 mph - N/A   Mist
7:25 AM 46.4 °F 44.3 °F 46.4 °F 100% 30.24 in - South 4.6 mph - N/A   Mist
7:26 AM 46.4 °F 44.3 °F 46.4 °F 100% 30.24 in 3.1 mi SSW 4.6 mph - N/A   Mist
7:31 AM 46.4 °F 44.3 °F 46.4 °F 100% 30.24 in 3.1 mi SSW 4.6 mph - N/A   Mist
7:35 AM 46.4 °F 44.3 °F 46.4 °F 100% 30.24 in - SSW 4.6 mph - N/A   Mist
7:39 AM 46.4 °F 45.2 °F 46.4 °F 100% 30.24 in 3.1 mi SW 3.5 mph - N/A   Mist
7:40 AM 46.4 °F 45.2 °F 46.4 °F 100% 30.24 in - SW 3.5 mph - N/A   Mist
7:55 AM 48.2 °F - 46.4 °F 93% 30.27 in - SW 3.5 mph - N/A   Mist
7:57 AM 48.2 °F - 46.4 °F 93% 30.27 in 3.1 mi SSW 3.5 mph - N/A   Mist
8:10 AM 48.2 °F - 46.4 °F 93% 30.27 in 3.1 mi SW 3.5 mph - N/A   Mist
8:25 AM 50.0 °F - 46.4 °F 87% 30.27 in 3.7 mi SW 4.6 mph - N/A   Mist
8:51 AM 51.8 °F - 46.4 °F 82% 30.27 in 4.3 mi SW 4.6 mph - N/A   Partly Cloudy
8:55 AM 51.8 °F - 46.4 °F 82% 30.27 in 4.3 mi SW 4.6 mph - N/A   Partly Cloudy
9:00 AM 51.8 °F - 48.2 °F 88% 30.27 in 5.0 mi SSW 5.8 mph - N/A   Partly Cloudy
9:13 AM 53.6 °F - 48.2 °F 82% 30.27 in 5.0 mi SW 6.9 mph - N/A   Mist
9:25 AM 53.6 °F - 48.2 °F 82% 30.27 in 5.6 mi SSW 8.1 mph - N/A   Partly Cloudy
9:55 AM 55.4 °F - 48.2 °F 77% 30.27 in 6.2 mi SSW 9.2 mph - N/A   Unknown
10:25 AM 57.2 °F - 46.4 °F 67% 30.27 in 6.2 mi SW 10.4 mph - N/A   Unknown
10:55 AM 59.0 °F - 46.4 °F 63% 30.27 in 6.2 mi SSW 10.4 mph - N/A   Partly Cloudy
11:25 AM 60.8 °F - 48.2 °F 63% 30.24 in 6.2 mi SW 12.7 mph - N/A   Unknown
11:55 AM 62.6 °F - 46.4 °F 55% 30.24 in 6.2 mi SW 15.0 mph - N/A   Unknown
12:25 PM 64.4 °F - 46.4 °F 52% 30.24 in 6.2 mi SSW 11.5 mph - N/A   Unknown
12:55 PM 66.2 °F - 48.2 °F 52% 30.24 in 6.2 mi SW 12.7 mph - N/A   Unknown
1:25 PM 66.2 °F - 48.2 °F 52% 30.24 in 6.2 mi SW 13.8 mph - N/A   Unknown
1:55 PM 68.0 °F - 46.4 °F 46% 30.24 in 6.2 mi SW 11.5 mph - N/A   Unknown
2:25 PM 69.8 °F - 46.4 °F 43% 30.24 in 6.2 mi WSW 12.7 mph - N/A   Unknown
2:32 PM 69.8 °F - 48.2 °F 46% 30.24 in 6.2 mi SW 15.0 mph - N/A   Unknown
2:55 PM 69.8 °F - 48.2 °F 46% 30.24 in 6.2 mi WSW 16.1 mph - N/A   Unknown
3:25 PM 69.8 °F - 48.2 °F 46% 30.21 in 6.2 mi WSW 13.8 mph - N/A   Unknown
3:55 PM 69.8 °F - 48.2 °F 46% 30.21 in 6.2 mi West 11.5 mph - N/A   Scattered Clouds
4:19 PM 69.8 °F - 50.0 °F 49% 30.21 in 6.2 mi West 12.7 mph - N/A   Mostly Cloudy
4:25 PM 69.8 °F - 48.2 °F 46% 30.21 in 6.2 mi West 12.7 mph - N/A   Mostly Cloudy
4:55 PM 71.6 °F - 50.0 °F 46% 30.21 in 6.2 mi West 10.4 mph 23.0 mph N/A   Mostly Cloudy
5:25 PM 69.8 °F - 50.0 °F 49% 30.21 in 6.2 mi West 10.4 mph - N/A   Partly Cloudy
5:55 PM 69.8 °F - 50.0 °F 49% 30.21 in 6.2 mi West 10.4 mph - N/A   Overcast
6:25 PM 69.8 °F - 50.0 °F 49% 30.21 in 6.2 mi WSW 12.7 mph - N/A   Unknown
6:55 PM 69.8 °F - 50.0 °F 49% 30.21 in 6.2 mi WSW 13.8 mph - N/A   Unknown
7:25 PM 68.0 °F - 50.0 °F 52% 30.21 in 6.2 mi WSW 10.4 mph - N/A   Unknown
7:55 PM 64.4 °F - 50.0 °F 59% 30.21 in 6.2 mi SW 9.2 mph - N/A   Mostly Cloudy
8:25 PM 66.2 °F - 50.0 °F 56% 30.21 in 6.2 mi West 5.8 mph - N/A   Overcast
8:55 PM 64.4 °F - 51.8 °F 64% 30.21 in 6.2 mi WNW 6.9 mph - N/A   Overcast
9:25 PM 62.6 °F - 50.0 °F 63% 30.24 in 6.2 mi WNW 5.8 mph - N/A   Overcast
9:55 PM 60.8 °F - 50.0 °F 68% 30.24 in 6.2 mi WNW 3.5 mph - N/A   Overcast
10:25 PM 59.0 °F - 50.0 °F 72% 30.24 in 6.2 mi NW 4.6 mph - N/A   Mostly Cloudy
10:55 PM 59.0 °F - 50.0 °F 72% 30.24 in 6.2 mi NW 3.5 mph - N/A   Partly Cloudy
11:25 PM 57.2 °F - 50.0 °F 77% 30.24 in 6.2 mi NW 4.6 mph - N/A   Overcast
11:55 PM 55.4 °F - 50.0 °F 82% 30.24 in 6.2 mi West 4.6 mph - N/A   Partly Cloudy